www.pogodaiklimat.ru

Погода и климат >> Архив погоды >> Корея >> Хыксандо


ПОГОДА в Хыксандо

  • Прогноз погоды в Хыксандо
  • Монитор погоды в Хыксандо

АРХИВ ПОГОДЫ в Хыксандо

Время (UTC), дата Ветер
(напр.,м/с)
 
Видим.   Явления Облачность Т
(С)
Тd
(С)
f
(%)
Тe
(С)
Тes
(С)
Комфортность P
(гПа)
Po
(гПа)
Тmin
(С)
Tmax
(С)
R
(мм)
R24
(мм)
S
(см)
03 12.08 Ю 8 3500 м дымка 9// 100 м
[Sc]
+25.9 +24.7 93 +37 +38 очень
душно
998.7 990.1
06 12.08 Ю 19 4800 м дымка 8/8 200 м
[Sc]
+28.0 +26.2 90 +42 +42 опасность
перегрева
998.4 989.9
09 12.08 Ю 6 2400 м дымка 9// 100 м
[Sc]
+25.8 +24.9 95 +37 +37 очень
душно
998.7 990.1
12 12.08 Ю 7 1800 м дымка 8/8 100 м
[Sc]
+24.1 +23.6 97 +33 +33 очень
душно
1000.3 991.7 +28.8 0.1
15 12.08 Ю 4 400 м туман 10// 300 м
[]
+24.4 +24.2 99 +34 +34 очень
душно
1001.1 992.5
18 12.08 Ю 6 <100 м туман ?/? +25.0 +24.8 99 +35 +35 очень
душно
1000.8 992.2
21 12.08 Ю 4 100 м туман 10// 100 м
[]
+24.9 +24.7 99 +35 +35 очень
душно
1001.0 992.4
00 13.08 Ю 7 600 м туман ?/? +24.3 +24.1 99 +33 +33 очень
душно
1002.0 993.4 +24.1 0.0
03 13.08 10 км н/о +27.2 +26.1 94 +41 +42 опасность
перегрева
1002.4 993.8
06 13.08 Ю 5 18 км 3/3 300 м
[Sc]
+28.3 +24.5 80 +40 +45 очень
душно
1001.7 993.2
09 13.08 Ю 5 15 км 3/0
[Ci fib]
+26.3 +24.0 87 +36 +37 очень
душно
1001.1 992.5
12 13.08 Ю 7 15 км 3/0
[Ci fib]
+24.4 +23.2 93 +33 +33 очень
душно
1002.3 993.7 +29.4
15 13.08 С 1 18 км 4/0
[Ci fib]
+25.2 +22.1 83 +33 +33 очень
душно
1002.5 993.9
18 13.08 С 6 2300 м дымка 4/4 100 м
[Sc]
+24.7 +24.4 98 +34 +34 очень
душно
1001.3 992.7
21 13.08 С 2 400 м туман 10// 300 м
[]
+24.8 +24.6 99 +35 +35 очень
душно
1001.1 992.5
00 14.08 С 8 7000 м дымка 8/0
[Ci fib]
+26.2 +24.8 92 +37 +38 очень
душно
1000.8 992.2 +24.4
03 14.08 С 4 8000 м дымка 8/3 200 м
[Sc Ci fib]
+28.9 +25.5 82 +43 +50 опасность
перегрева
1000.0 991.5
06 14.08 С 7 11 км 3/0
[Ci fib]
+27.6 +23.8 80 +38 +42 очень
душно
998.4 989.9
09 14.08 С 5 15 км 3/0
[Ci fib]
+25.4 +23.1 87 +34 +35 очень
душно
997.5 988.9
12 14.08 С 15 19 км 4/0
[Ci fib]
+25.5 +23.4 88 +34 +34 очень
душно
996.7 988.1 +29.2
15 14.08 10 км н/о +25.3 +23.9 92 +35 +35 очень
душно
996.2 987.6
18 14.08 С 12 8000 м дымка 8/8 300 м
[Sc]
+25.0 +23.8 93 +34 +34 очень
душно
995.1 986.5
21 14.08 С 7 7000 м дымка 9// 300 м
[Sc]
+25.0 +23.8 93 +34 +34 очень
душно
993.9 985.3
00 15.08 С 13 8000 м дымка 10/6 300 м
[Sc As op]
+25.6 +23.6 89 +35 +35 очень
душно
994.1 985.5 +24.7
03 15.08 СЗ 5 9000 м дымка 10/10 300 м
[Sc As op]
+25.5 +23.4 88 +34 +34 очень
душно
993.5 984.9
06 15.08 СЗ 10 11 км 10/8 300 м
[Sc As op]
+25.2 +22.9 87 +33 +33 очень
душно
992.7 984.1
09 15.08 18 км н/о +24.9 +22.4 86 +33 +33 очень
душно
992.2 983.6
12 15.08 СЗ 9 19 км 6/6 300 м
[Sc]
+24.5 +22.6 89 +32 +32 очень
душно
993.3 984.8 +26.6
15 15.08 СЗ 3 19 км 3/3 300 м
[Sc]
+24.3 +22.0 87 +31 +31 очень
душно
994.0 985.5
18 15.08 З 4 15 км в посл. час ливневой дождь 8/8 300 м
[Sc]
+24.0 +22.4 91 +31 +31 очень
душно
994.4 985.9 0.1
21 15.08 З 2 20 км 8/6 300 м
[Sc Ac trans]
+23.8 +22.2 91 +31 +31 очень
душно
995.8 987.2
00 16.08 З 4 18 км 9/9 1000 м
[Sc]
+25.3 +22.6 85 +33 +34 очень
душно
997.4 988.8 +23.2 1
03 16.08 19 км н/о +27.8 +22.3 72 +36 +41 очень
душно
998.1 989.6
06 16.08 СЗ 5 17 км 3/3 300 м
[Sc]
+27.0 +23.2 80 +36 +41 очень
душно
998.3 989.8
09 16.08 З 1 18 км ясно +25.8 +22.1 80 +33 +35 очень
душно
998.8 990.2
12 16.08 Ю 3 13 км ясно +23.4 +21.5 89 +32 +32 очень
душно
1001.1 992.5 +28.3 0.0
15 16.08 Ю 3 8000 м дымка 3/0
[Ci fib]
+23.6 +22.4 93 +31 +31 очень
душно
1001.7 993.1
18 16.08 Ю 2 19 км 1/1 300 м
[Sc]
+23.6 +21.7 89 +30 +30 очень
душно
1001.6 993.0
21 16.08 3300 м дымка н/о +24.2 +22.4 90 +32 +32 очень
душно
1002.0 993.4
00 17.08 Ю 7 7000 м дымка 3/3 1000 м
[Sc]
+25.8 +22.5 82 +34 +35 очень
душно
1002.8 994.2 +23.3 0.0
03 17.08 Ю 6 12 км 3/0
[Ci fib]
+27.3 +23.1 78 +37 +44 очень
душно
1002.8 994.2
06 17.08 Ю 7 7000 м дымка 8/8 300 м
[Sc]
+28.1 +24.1 79 +39 +40 очень
душно
1001.8 993.3
09 17.08 3000 м в посл. час ливневой дождь н/о +25.0 +23.8 93 +34 +34 очень
душно
1002.2 993.6
12 17.08 С 7 4300 м дымка 10/4 1000 м
[Sc As op]
+23.3 +20.6 85 +31 +31 очень
душно
1003.9 995.2 +28.7 4
15 17.08 С 3 6000 м дымка 6/4 1000 м
[Sc Ci fib]
+23.1 +20.0 83 +30 +30 очень
душно
1005.5 996.8
18 17.08 С 5 6000 м дымка 8/0
[Ci fib]
+22.4 +19.9 86 +29 +29 очень
душно
1005.5 996.8
21 17.08 С 2 20 км 3/0
[Ci fib]
+22.8 +18.8 78 +29 +29 очень
душно
1006.1 997.4
00 18.08 штиль 0 20 км 8/0
[Ci fib]
+25.7 +19.8 70 +31 +40 очень
душно
1007.4 998.7 +21.5 0.0
03 18.08 Ю 2 20 км 3/1 1000 м
[Sc Ci fib]
+25.4 +20.2 73 +31 +47 очень
душно
1007.9 999.2
06 18.08 СЗ 2 20 км 3/0
[Ci fib]
+26.8 +20.9 70 +34 +46 очень
душно
1007.0 998.4
09 18.08 С 2 20 км 3/1 1000 м
[Sc Ci fib]
+24.5 +20.2 77 +30 +31 очень
душно
1006.6 998.0
12 18.08 С 6 20 км ясно +22.0 +19.4 85 +27 +27 душно 1007.5 998.7 +27.2
15 18.08 С 2 20 км 3/0
[Ci fib]
+22.0 +19.4 85 +27 +27 душно 1008.5 999.7
18 18.08 С 3 20 км 6/0
[Ci fib]
+21.8 +20.1 90 +27 +27 душно 1008.7 999.9
21 18.08 С 3 20 км 4/0
[Ci fib]
+21.6 +20.2 92 +27 +27 душно 1008.9 1000.1
00 19.08 С 8 20 км 5/0
[Ci fib]
+24.8 +21.1 80 +31 +32 очень
душно
1009.4 1000.8 +21.3

 

Местоположение метеостанции Хыксандо (Корея): широта 34.68 долгота 125.45 высота над уровнем моря 83 м.

В архиве по умолчанию представлена погода в Хыксандо за последнюю неделю. Архивные данные за месяц целиком и за предыдущие месяцы, начиная с января 2011 года, Вы можете получить, выбрав интересующий диапазон дат из раскрывающегося списка и нажав кнопку "Ввод!".


*Определитесь, кто Вы:
робот инопланетянин человек

Внимание! Время в таблицах - всемирное. Для получения местного времени необходимо прибавить поправку, которая равна 9 ч.

Смотрите также архив погоды в соседних городах и на ближайших метеорологических станциях:

Погода на Радаре Jindo (Корея) (84 км)
Погода в Мокпхо (Корея) (86 км)
Погода в Уондо (Корея) (119 км)
Погода в Кочхане (Корея) (141 км)
Погода в Кванджу (Корея) (143 км)
Погода в Чоныпе (Корея) (161 км)
Погода на Чеджудо (Корея) (163 км)
Погода в Сунчхоне (Корея) (168 км)
Погода на Ёнпхёндо (Корея) (181 км)
Погода в Кунсане (Корея) (189 км)

Пояснения к столбцам:

Ветер - указаны скорость ветра в м/с - средняя за 10 мин, порывы в срок и между сроками (в фигурных скобках) и направление, откуда дует ветер: С - северный, СВ - северо-восточный, В - восточный, ЮВ - юго-восточный, Ю - южный, ЮЗ - юго-западный, З - западный, СЗ - северо-западный.
Видимость - горизонтальная дальность видимости в метрах или километрах. При видимости от 1 до 10 км при отсутствии осадков обычно наблюдается дымка, при ухудшении видимости до 1 км и менее - туман. В сухую погоду видимость может ухудшаться дымом, пылью или мглою.
Явления - указаны атмосферные явления, наблюдавшиеся в срок или в последний час перед сроком; фигурными скобками обозначены явления, наблюдавшиеся между сроками (за 1-3 часа до срока); квадратными скобками обозначены град или гололедные отложения с указанием их диаметра в мм.
Облачность - указаны через наклонную черту общая и нижняя облачность в баллах и высота нижней границы облаков в метрах; квадратными скобками обозначены формы облаков: Ci - перистые, Cs - перисто-слоистые, Cc - перисто-кучевые, Ac - высококучевые, As - высокослоистые, Sc - слоисто-кучевые, Ns - слоисто-дождевые, Cu - кучевые, Cb - кучево-дождевые. Подробнее классификацию облаков см. в Атласе облаков (PDF).
T - Температура воздуха - температура, измеренная на высоте 2 м над землей.
Td - Температура точки росы - температура, при понижении до которой содержащийся в воздухе водяной пар достигнет насыщения.
f - Относительная влажность воздуха - влажноcть воздуха, измеренная на высоте 2 м над землей.
Te - Эффективная температура - температура, которую ощущает одетый по сезону человек в тени. Характеристика душности погоды. При расчете учитывается влияние влажности воздуха и скорости ветра на теплоощущения человека.
Tes - Эффективная температура на солнце - температура, которую ощущает человек, с поправкой на солнечный нагрев. Характеристика знойности погоды. Зависит от высоты солнца над горизонтом, облачности и скорости ветра. Ночью, в пасмурную погоду, а также при ветре 12 м/с и более поправка равна нулю.
P - Атмосферное давление - приведенное к уровню моря атмосферное давление.
Po - Атмосферное давление - измеренное на уровне метеостанции атмосферное давление.
Tmin - Минимальная температура - минимум температуры воздуха на высоте 2 м над землей.
Tmax - Максимальная температура - максимум температуры воздуха на высоте 2 м над землей.
R - Количество осадков - Количество выпавших осадков за период времени, мм. При наведении курсора мыши на число - период времени, за который выпало указанное количество осадков.
R24 - Количество осадков - Количество выпавших осадков за 24 часа, мм.
S - Снежный покров - Высота снежного покрова, см. При наведении курсора мыши на число - состояние снежного покрова и степень покрытия местности в баллах.